If you wish to contribute or participate in the discussions about articles you are invited to join SKYbrary as a registered user

 Actions

Alta Floresta Airport

From SKYbrary Wiki

SBAT
Airport
ICAO: SBAT – IATA: AFL
Summary
Name Alta Floresta Airport
Region South America and Caribbean
Territory Brazil BR.gif
Location Alta Floresta, Mato Grosso
Serving Alta Floresta
Elevation 288.646 m
947 ft288.646 m
Coordinates 9° 51' 59.00" S, 56° 6' 18.00" W
Runways
Designator Length Width Surface ROPS
3/21 2500 m8,202.1 ft
30 m98.425 ft
ASP /


METAR
Observation SBAT 251400Z 04005KT CAVOK 32/17 Q1014
Station Alta Floresta Aeroporto
Date/Time 25 June 2019 14:00:00
Wind direction 40°
Wind speed 05 kts
Lowest cloud amount clouds and visibility OK
Temperature 32°C
Dew point 17°C
Humidity 40%
QNH 1014 hPa
Weather condition n/a

Piloto Osvaldo Marques Dias Airport is the airport serving Alta Floresta, Brazil.

Climatology

Tropical savanna climate (Köppen climate classification Aw)

Maps

Terrain

Loading map...

Airport Layout

Loading map...


Accidents & Serious Incidents at or in vicinity of SBAT

None on SKYbrary